Wind_Speed
25 25 34 34 37 27 18 20 26 25 29 29 35 35 34 25 27 36 34 33 25 32 31 32 35 50 42 52 44 49 42 30 28 21 16 12 10 17 17 7 4 3 9 13
19 32 23 23 27 24 23 27 26 26 25 27 34 37 36 29 28 35 34 29 32 33 34 33 20 54 35 31 48 49 35 35 27 23 17 20 19 19 12 12 7 8 12 16
22 16 21 18 21 24 27 29 30 29 24 30 32 36 36 30 27 37 36 35 35 31 30 43 32 36 42 40 55 49 46 37 32 30 24 18 18 16 11 5 9 12 15 17
13 11 18 21 26 26 27 33 29 22 31 26 36 20 38 37 34 35 30 28 29 28 33 26 25 36 49 41 40 49 42 37 28 24 18 15 13 13 6 10 12 14 17 19
13 15 17 26 27 25 31 26 27 25 26 27 29 27 34 41 41 32 39 33 30 30 27 39 40 34 43 47 20 43 41 29 26 18 16 13 12 12 8 8 15 18 19 20
10 8 18 25 23 25 23 21 23 23 23 6 26 27 35 32 47 38 38 37 32 24 22 22 30 21 23 12 4 3 19 24 21 16 12 12 13 7 11 16 17 17 16 15
10 16 21 20 23 24 23 18 2 4 4 4 25 11 28 41 30 44 39 38 30 24 25 25 18 14 13 14 19 14 14 16 17 15 11 12 10 13 18 19 16 17 14 15
11 7 17 20 24 13 21 25 10 6 4 9 21 12 32 39 26 41 38 41 30 20 17 17 16 32 11 15 16 13 15 13 10 8 15 14 11 14 18 17 17 17 17 18
5 7 10 12 13 15 20 22 28 8 12 2 12 27 37 34 42 31 39 36 28 22 15 15 9 15 27 23 24 14 19 19 16 12 15 14 16 18 17 16 17 17 16 18
3 1 8 13 14 19 17 23 23 22 8 5 18 21 35 27 40 30 35 39 32 23 16 17 21 12 13 15 25 27 29 23 19 22 20 15 17 19 14 12 15 16 17 21
3 4 6 18 19 18 17 16 10 7 17 2 1 14 27 27 28 29 24 26 34 27 22 22 28 29 22 18 20 19 21 21 21 21 16 17 19 17 15 15 14 16 19 21
8 5 16 19 14 15 11 13 12 3 2 6 5 8 3 21 31 29 24 15 28 39 30 32 27 21 28 22 22 23 20 20 22 19 18 19 16 15 17 16 17 18 20 23
2 4 12 11 17 20 19 11 11 19 3 2 3 3 5 16 22 27 24 26 24 24 21 18 22 18 20 25 24 23 19 22 21 19 25 19 16 20 19 18 19 20 23 27
6 11 9 16 22 22 16 15 18 19 4 7 8 10 18 29 22 27 27 26 22 22 20 22 28 30 29 29 24 21 20 17 14 16 20 19 20 22 20 19 21 23 26 30
9 8 10 22 16 21 21 18 15 15 11 9 12 6 16 26 23 26 25 23 26 31 30 27 31 34 31 29 27 21 18 17 17 17 21 25 25 22 20 21 24 26 29 34
7 15 13 12 20 21 23 19 18 24 20 15 13 11 15 20 24 23 24 26 25 23 20 20 23 24 26 29 29 22 15 7 23 30 24 24 22 19 19 24 26 29 34 38
10 12 11 13 11 14 21 21 15 14 28 20 2 13 23 25 23 19 15 16 15 15 17 12 15 18 22 21 27 29 21 23 18 30 21 18 19 21 24 28 31 34 39 43
8 10 18 13 13 5 12 18 15 14 22 27 28 21 20 19 21 12 7 13 12 14 12 11 21 28 26 30 28 27 28 24 24 26 22 20 24 27 28 30 33 37 40 44
13 14 8 4 13 9 17 5 9 8 15 17 25 27 26 13 12 16 17 14 10 12 12 12 13 19 27 27 25 24 25 26 26 28 24 25 27 29 30 33 38 41 46 46
12 11 15 11 7 2 18 16 2 8 13 16 19 20 12 13 15 18 20 18 15 13 11 11 15 23 26 31 32 32 29 27 26 24 27 28 32 35 37 38 39 40 41 41
12 10 19 15 3 16 18 13 9 7 16 23 17 17 22 21 15 15 19 17 14 7 6 6 4 20 33 30 27 25 20 23 19 22 25 25 26 29 32 33 34 36 36 36
16 15 22 15 6 9 12 16 6 7 14 12 19 12 15 14 13 12 13 12 8 7 11 13 5 7 17 21 24 15 14 16 19 18 22 24 25 27 28 30 32 33 33 31
14 6 8 8 6 6 20 18 17 14 10 18 17 16 14 13 15 11 13 12 11 13 10 11 10 9 7 8 5 5 8 12 15 17 20 22 22 24 26 29 30 30 28 25
6 9 7 6 7 12 21 15 14 14 17 17 13 12 19 17 15 15 14 13 14 13 11 11 8 3 1 3 5 7 10 12 14 15 17 18 19 22 25 27 27 25 22 22
8 10 9 8 15 15 20 21 18 16 13 13 12 12 14 16 16 15 16 16 15 13 10 7 4 3 4 5 7 9 10 12 12 12 13 15 18 21 24 24 24 22 21 17
14 17 16 21 14 7 11 23 22 17 16 11 11 17 18 15 15 18 19 18 14 10 7 6 3 4 5 7 7 9 9 9 9 11 13 16 19 22 23 23 22 20 18 18
Wind_Direction
187 188 195 193 202 214 226 224 232 232 219 222 223 234 214 235 239 211 245 245 233 226 232 241 231 214 216 216 222 238 231 211 201 182 183 176 228 244 245 233 208 291 312 319
182 200 197 202 212 214 231 235 237 228 225 228 221 237 226 229 228 223 244 234 239 241 242 239 245 208 188 211 229 227 214 199 183 182 192 214 234 231 207 228 266 306 313 316
202 205 190 199 209 214 230 235 233 231 223 225 224 236 236 230 227 236 240 240 242 247 246 225 246 226 218 237 226 222 199 189 191 190 192 207 229 230 218 286 309 307 308 304
218 165 196 205 218 213 225 211 223 236 232 229 220 235 233 227 226 233 229 223 234 254 250 232 215 225 239 259 198 213 191 190 189 184 182 197 218 234 270 279 286 295 297 302
208 208 199 215 212 209 227 219 228 244 247 237 231 233 227 225 233 240 241 238 246 257 269 260 257 272 259 273 237 196 185 171 185 187 180 201 226 278 267 264 289 289 295 301
199 217 214 206 209 212 223 231 242 251 249 274 245 221 230 220 233 237 232 237 241 257 274 263 260 245 230 192 120 150 146 170 170 168 194 236 270 259 277 286 281 290 293 291
229 230 217 212 204 207 204 224 11 259 204 204 239 240 232 230 238 231 232 230 234 257 257 264 223 193 168 191 138 152 163 160 176 191 230 255 250 273 287 279 279 296 287 284
222 186 198 184 199 192 213 200 149 184 170 230 236 220 237 216 226 227 236 237 237 237 244 246 248 227 237 170 172 178 197 213 210 235 246 255 270 270 265 280 286 279 277 287
288 197 202 196 205 195 204 195 199 222 205 189 213 231 238 232 226 242 228 230 231 221 228 219 182 174 177 192 212 214 242 250 261 242 238 256 270 262 259 275 289 285 287 294
304 190 224 199 201 220 229 212 207 211 174 177 205 220 221 221 217 226 217 213 220 212 212 201 191 194 194 204 208 220 234 245 237 233 245 251 245 236 245 258 261 276 289 297
328 263 229 184 211 223 219 228 239 261 243 71 183 223 222 229 217 204 199 206 210 199 203 203 205 203 194 214 235 239 231 232 233 237 246 225 222 234 256 251 255 272 284 296
235 355 184 200 214 219 241 280 241 196 118 207 174 245 1 217 206 192 205 199 194 199 199 204 212 209 227 210 226 228 227 229 242 255 248 226 235 258 255 250 261 272 287 297
261 232 173 209 236 237 262 236 232 225 261 19 26 253 205 224 174 198 206 197 201 192 203 173 182 198 206 222 230 227 237 233 240 259 267 240 246 241 237 247 265 281 291 299
281 232 211 200 222 226 229 228 239 227 283 351 255 268 155 173 167 159 159 166 170 169 197 185 201 216 223 221 217 225 237 236 248 261 244 241 232 232 241 259 276 286 295 301
256 290 288 224 199 207 233 230 224 210 235 318 223 212 146 152 159 170 175 179 185 188 185 186 200 210 209 211 210 213 215 219 260 256 236 234 230 239 255 270 279 289 297 299
259 274 298 261 219 214 218 222 233 225 235 261 238 255 173 138 157 163 168 179 182 188 190 187 187 203 216 224 222 202 207 14 282 280 270 250 240 249 261 272 284 295 300 302
288 288 305 278 239 227 213 213 227 223 181 156 246 195 175 174 166 155 176 193 188 194 208 201 208 215 215 216 181 190 238 298 262 282 294 275 257 261 272 281 288 294 298 301
262 267 307 278 271 277 232 207 212 226 155 167 154 162 162 169 161 179 182 232 212 210 228 241 219 231 232 244 239 254 263 264 265 262 271 265 263 268 273 283 288 295 299 302
270 253 213 295 308 208 209 153 179 197 153 182 180 176 179 140 94 164 210 221 208 208 200 203 227 237 238 237 235 229 224 232 247 248 258 259 264 272 280 287 289 293 299 302
234 253 216 278 291 243 203 181 180 110 131 170 179 170 180 212 182 203 198 201 206 213 224 222 222 226 232 220 209 211 224 228 239 255 269 268 273 277 287 291 295 297 299 300
202 202 214 211 218 276 239 224 238 167 183 149 148 134 129 134 148 192 187 196 203 208 227 242 246 230 221 211 205 211 230 236 244 262 265 273 284 289 290 295 300 300 301 300
240 214 215 212 167 274 240 217 203 127 122 158 157 167 126 142 159 172 187 183 171 148 109 103 108 160 159 144 166 173 213 235 253 268 277 288 290 293 298 301 303 306 304 298
243 255 256 238 208 222 207 187 168 138 147 169 192 213 215 176 169 179 182 178 165 147 136 117 114 114 104 113 145 209 255 270 277 280 285 288 293 299 303 307 308 308 305 299
228 251 247 209 172 177 167 165 167 154 150 129 136 155 164 171 173 179 183 180 168 163 151 145 143 137 29 317 287 277 276 279 283 287 289 296 303 306 310 312 312 311 308 304
333 271 263 272 213 173 151 172 179 175 161 153 148 151 165 178 181 188 188 185 181 178 172 175 190 214 233 258 268 274 277 281 282 288 299 308 314 316 319 319 317 317 316 314
277 275 282 277 306 241 177 175 176 179 175 177 176 174 179 187 193 189 192 193 192 189 198 222 240 256 272 280 288 289 288 290 297 306 311 317 324 331 335 335 333 330 324 316
Height
3029 3035 3034 3039 3045 3056 3061 3066 3068 3071 3075 3082 3084 3083 3087 3094 3100 3104 3103 3107 3112 3115 3114 3114 3124 3133 3136 3143 3147 3147 3147 3153 3155 3157 3164 3166 3167 3170 3171 3171 3175 3175 3174 3174
3029 3028 3037 3043 3049 3056 3059 3063 3066 3070 3075 3080 3083 3080 3086 3092 3097 3102 3100 3100 3103 3100 3107 3108 3106 3116 3096 3130 3144 3144 3147 3149 3149 3152 3158 3161 3161 3163 3168 3171 3171 3172 3171 3171
3027 3031 3037 3042 3048 3053 3055 3057 3060 3067 3071 3076 3080 3079 3083 3090 3096 3093 3097 3099 3099 3100 3105 3109 3111 3113 3116 3127 3132 3139 3140 3143 3145 3148 3152 3155 3158 3163 3165 3168 3167 3168 3168 3168
3030 3032 3038 3041 3046 3051 3053 3052 3058 3064 3069 3071 3075 3075 3076 3083 3088 3091 3093 3098 3099 3100 3105 3109 3116 3120 3114 3095 3102 3127 3129 3140 3144 3144 3150 3155 3158 3161 3162 3165 3165 3164 3165 3165
3029 3031 3033 3038 3042 3049 3047 3053 3058 3062 3065 3068 3069 3075 3072 3078 3081 3087 3087 3093 3096 3100 3102 3102 3108 3115 3110 3117 3101 3092 3123 3126 3141 3142 3145 3150 3157 3158 3158 3161 3162 3162 3161 3160
3028 3032 3033 3036 3042 3045 3051 3056 3059 3061 3062 3065 3065 3067 3066 3072 3077 3082 3082 3087 3093 3096 3102 3102 3099 3102 3103 3109 3099 3106 3092 3129 3134 3139 3146 3148 3152 3152 3155 3156 3157 3157 3156 3156
3029 3027 3029 3032 3038 3043 3047 3052 3057 3062 3062 3064 3063 3065 3064 3070 3071 3077 3080 3084 3093 3094 3095 3096 3102 3099 3095 3097 3117 3125 3128 3130 3131 3138 3142 3146 3147 3149 3150 3149 3149 3152 3152 3153
3027 3029 3029 3030 3035 3039 3043 3050 3053 3061 3058 3058 3062 3060 3055 3063 3068 3073 3078 3081 3091 3094 3091 3093 3096 3097 3104 3105 3115 3116 3121 3126 3131 3134 3139 3142 3139 3144 3146 3142 3145 3147 3148 3148
3023 3025 3028 3032 3035 3041 3045 3044 3053 3056 3056 3061 3058 3055 3059 3058 3061 3069 3070 3075 3084 3088 3088 3089 3094 3094 3103 3110 3118 3116 3124 3129 3131 3133 3137 3137 3136 3141 3138 3138 3137 3138 3141 3143
3025 3023 3024 3029 3035 3039 3041 3043 3055 3055 3058 3056 3053 3051 3050 3053 3056 3064 3065 3069 3079 3084 3089 3087 3091 3097 3102 3110 3116 3116 3120 3123 3127 3129 3130 3131 3135 3139 3135 3132 3133 3133 3137 3137
3025 3026 3025 3029 3031 3034 3040 3043 3047 3049 3049 3050 3047 3042 3046 3049 3056 3062 3060 3068 3074 3080 3086 3091 3091 3096 3101 3104 3106 3109 3114 3122 3124 3124 3127 3129 3132 3131 3129 3130 3131 3133 3135 3135
3027 3025 3024 3026 3031 3032 3034 3037 3041 3046 3046 3049 3047 3044 3045 3047 3052 3058 3062 3062 3069 3074 3083 3087 3092 3092 3096 3098 3103 3109 3116 3120 3117 3119 3123 3122 3122 3125 3126 3128 3131 3132 3133 3132
3027 3026 3027 3029 3030 3029 3031 3035 3038 3040 3042 3043 3048 3045 3047 3047 3052 3056 3061 3066 3065 3072 3078 3081 3088 3087 3090 3094 3099 3102 3109 3110 3111 3113 3116 3116 3119 3122 3125 3128 3128 3128 3128 3126
3028 3026 3027 3028 3027 3030 3031 3032 3035 3035 3038 3046 3048 3048 3046 3048 3054 3058 3060 3063 3066 3069 3077 3084 3090 3084 3084 3091 3097 3099 3101 3104 3106 3107 3110 3114 3118 3121 3124 3124 3124 3124 3123 3120
3027 3026 3025 3027 3025 3029 3028 3031 3035 3037 3039 3044 3046 3050 3051 3052 3056 3058 3059 3061 3065 3067 3072 3078 3081 3082 3085 3088 3091 3093 3100 3106 3107 3109 3112 3114 3116 3119 3120 3120 3120 3119 3117 3113
3026 3025 3024 3023 3026 3027 3028 3033 3035 3036 3040 3046 3046 3049 3049 3049 3049 3053 3057 3061 3064 3068 3073 3077 3081 3083 3086 3088 3090 3096 3101 3104 3106 3109 3113 3114 3113 3116 3117 3117 3114 3111 3109 3105
3026 3026 3025 3023 3024 3026 3027 3032 3034 3033 3035 3042 3044 3046 3049 3051 3052 3055 3061 3066 3068 3073 3077 3080 3083 3085 3087 3089 3091 3094 3096 3100 3102 3104 3108 3110 3110 3112 3111 3109 3105 3104 3101 3097
3025 3024 3027 3025 3024 3026 3025 3031 3034 3035 3036 3039 3042 3046 3053 3051 3053 3059 3065 3069 3072 3076 3078 3081 3082 3085 3088 3091 3092 3094 3095 3098 3100 3103 3106 3107 3108 3108 3104 3101 3099 3098 3094 3090
3024 3024 3028 3027 3025 3021 3022 3027 3027 3028 3037 3038 3040 3045 3051 3051 3059 3064 3068 3070 3071 3073 3077 3079 3082 3082 3083 3084 3086 3090 3093 3096 3100 3102 3102 3103 3102 3100 3098 3094 3092 3089 3086 3081
3022 3021 3023 3029 3029 3020 3020 3023 3025 3027 3034 3039 3040 3044 3050 3052 3055 3060 3064 3067 3069 3072 3074 3076 3076 3077 3078 3080 3084 3088 3092 3095 3097 3097 3099 3098 3096 3093 3090 3087 3084 3081 3078 3073
3019 3022 3023 3029 3027 3020 3017 3019 3022 3027 3033 3035 3040 3041 3044 3046 3054 3061 3064 3066 3068 3070 3070 3070 3069 3071 3071 3076 3082 3085 3089 3091 3093 3093 3093 3092 3089 3086 3084 3080 3078 3074 3070 3064
3014 3014 3017 3023 3025 3024 3016 3017 3021 3027 3028 3033 3037 3041 3043 3048 3053 3057 3061 3065 3066 3068 3069 3069 3069 3070 3071 3069 3073 3079 3085 3087 3087 3087 3086 3085 3083 3080 3077 3074 3070 3066 3061 3056
3014 3014 3015 3016 3016 3015 3015 3015 3023 3028 3030 3029 3033 3037 3040 3046 3051 3056 3059 3062 3064 3067 3069 3069 3071 3073 3074 3073 3077 3080 3082 3083 3083 3082 3081 3080 3077 3074 3071 3068 3063 3059 3054 3050
3011 3011 3012 3014 3014 3016 3018 3020 3024 3028 3031 3032 3036 3039 3042 3046 3049 3053 3056 3060 3064 3067 3068 3071 3073 3074 3073 3074 3075 3077 3078 3078 3077 3076 3075 3074 3071 3068 3065 3061 3056 3053 3048 3045
3011 3010 3009 3010 3013 3015 3015 3016 3019 3025 3030 3032 3036 3039 3042 3046 3049 3052 3056 3059 3063 3065 3068 3070 3072 3072 3073 3074 3075 3075 3075 3074 3074 3073 3071 3069 3066 3063 3058 3053 3049 3045 3041 3039
3009 3008 3007 3001 2995 3001 3007 3015 3020 3025 3028 3030 3035 3039 3042 3045 3049 3052 3055 3059 3062 3065 3067 3069 3070 3070 3071 3072 3071 3071 3071 3070 3069 3068 3067 3065 3062 3058 3053 3048 3043 3040 3037 3035